Location: *
(46.5000°N, 6.3667°E)
Time: 12:34:14
(UTC+00:00)

Daily predictions for brighter satellites

Satellite Brightness Start Highest point End
(mag) Time Altitude Azimuth Time Altitude Azimuth Time Altitude Azimuth
Meteor 2-10 Rocket 3.7 16:50:50 10° N 16:56:13 54° ENE 17:01:20 10° SSE
Cosmos 2082 Rocket 4.0 16:55:48 10° NNE 16:57:45 12° NNE 16:59:42 10° NE
Cosmos 1844 4.3 16:52:44 10° S 16:57:53 37° ESE 17:03:07 10° NE
OE (NEXTSAT) 4.4 16:55:37 10° W 16:59:03 82° S 17:02:30 10° E
AQUARIUS 4.1 16:55:02 10° SSE 16:59:31 81° ENE 17:04:02 10° NNW
NOAA 12 4.2 16:57:29 10° SSE 17:02:43 83° WSW 17:08:00 10° NNW
Cosmos 1844 Rocket 2.9 17:01:24 10° S 17:06:53 54° ESE 17:12:23 10° NE
Cosmos 2058 Rocket 3.2 17:02:29 10° N 17:06:58 60° ENE 17:11:25 10° SSE
MOS 1 Rocket 4.2 17:03:44 10° NE 17:07:13 24° E 17:10:42 10° SSE
SeaSat 1 4.0 17:04:09 10° NNE 17:08:31 33° NW 17:12:53 10° WSW
Nadezhda 4 Rocket 4.3 17:02:46 10° SSE 17:08:38 46° E 17:14:29 10° NNE
Cosmos 158 Rocket 4.3 17:03:57 10° NNW 17:09:10 50° ENE 17:14:24 10° SE
Meteor 1-24 Rocket 3.9 17:03:52 10° SSW 17:09:11 72° WNW 17:14:30 10° N
H-2A R/B 3.0 17:05:10 10° S 17:09:12 65° WSW 17:13:26 10° NNW
ATLAS 2AS CENTAUR R/B 4.2 17:03:59 10° W 17:11:01 33° NNW 17:17:52 10° NNE
Cosmos 1726 Rocket 3.8 17:07:21 10° NNW 17:11:45 77° W 17:16:09 10° S
Cosmos 1689 Rocket 4.2 17:15:07 10° E 17:15:07 10° E 17:15:26 10° E
Aureole 3 3.4 17:13:34 10° N 17:16:34 32° ENE 17:19:18 10° SE
Helios 1A Rocket 4.3 17:15:05 10° ESE 17:17:57 18° ENE 17:20:50 10° NNE
Cosmos 1626 Rocket 4.2 17:16:59 10° SSE 17:20:56 34° E 17:24:56 10° NNE
Cosmos 2278 Rocket 3.7 17:23:52 10° SE 17:26:56 15° E 17:28:29 14° E
Cosmos 405 4.5 17:26:05 10° NNE 17:28:29 17° ENE 17:29:22 16° E
ATLAS 5 CENTAUR R/B 3.5 17:25:22 10° W 17:28:44 22° NNW 17:32:28 10° NNE
Okean 1-7 Rocket 3.6 17:24:33 10° S 17:29:06 78° E 17:33:42 10° NNE
SMAP 4.3 17:25:52 10° S 17:30:19 45° W 17:34:48 10° NNW
CZ-4B R/B 4.0 17:25:16 10° S 17:30:44 58° WSW 17:36:20 10° NNW
Iridium 4 Rocket 4.2 17:28:34 10° NNE 17:33:31 32° ENE 17:38:06 10° SE
Lacrosse 5 2.4 17:29:38 10° NW 17:34:38 61° SW 17:39:36 10° SE
USA 234 4.1 17:29:30 12° ENE 17:34:45 35° N 17:40:34 10° WNW
Cosmos 923 Rocket 4.0 17:29:58 10° NNW 17:35:20 73° ENE 17:40:37 10° SSE
Cosmos 1939 Rocket 3.0 17:33:19 10° S 17:37:25 82° WSW 17:41:31 10° NNW
COSMO-SKYMED 1 2.6 17:33:48 10° NNE 17:38:07 63° E 17:42:25 10° S
Cosmos 1898 Rocket 4.0 17:33:45 10° S 17:38:35 39° ESE 17:43:16 11° NE
CZ-4C R/B 4.2 17:36:53 10° WNW 17:41:04 20° NNW 17:45:49 10° NNE
Cosmos 1680 Rocket 3.5 17:35:57 10° NNW 17:41:10 62° ENE 17:46:19 10° SSE
CREW DRAGON DEMO-1 DEB 3.4 17:39:10 10° WNW 17:42:00 51° SSW 17:44:38 11° SE
Aureole 3 Rocket 3.4 17:40:53 10° NNE 17:43:32 25° ENE 17:46:29 10° SE
Cosmos 2026 Rocket 4.3 17:39:09 10° SSE 17:44:48 41° E 17:50:34 10° NNE
Feng Yun 1-1 Rocket 4.2 17:41:21 10° SSE 17:46:48 88° WSW 17:52:26 10° NNW
ISS -3.3 17:44:22 10° W 17:47:42 55° NNW 17:49:25 25° NE
CZ-2D R/B 3.2 17:44:12 10° SSE 17:48:03 87° ENE 17:51:54 10° NNW
NOSS 2-1 (E) 3.5 17:45:33 10° SSW 17:48:40 38° ESE 17:49:50 28° ENE
IRS-1C Rocket 4.0 17:46:59 10° SSE 17:52:13 78° ENE 17:57:30 10° NNW
Cosmos 1340 3.0 17:48:53 10° SSE 17:52:25 42° E 17:54:46 19° NNE
H-2A R/B 2.1 17:47:38 10° SE 17:52:27 50° ENE 17:57:27 10° N
ERS-2 2.2 17:50:25 14° NNE 17:53:27 51° ESE 17:56:59 10° S
Meteor 1-21 Rocket 4.1 17:48:18 10° S 17:53:48 81° E 17:59:24 10° NNE
Cosmos 1455 2.5 17:50:57 10° NNW 17:54:45 67° W 17:58:34 10° S
Cosmos-2242 3.7 17:52:59 10° N 17:56:48 30° ENE 17:59:06 19° ESE
CZ-4 R/B 1.3 17:54:01 10° SSE 17:58:03 65° ENE 18:02:02 10° N
Cosmos 2263 Rocket 4.4 17:54:59 10° W 17:59:01 20° NW 18:03:05 10° N
TELKOM 3 3.9 17:58:19 10° WNW 18:00:30 35° N 18:00:30 35° N
Cosmos 1602 Rocket 3.4 17:58:20 10° S 18:02:38 68° E 18:07:01 10° NNE
H-2A R/B 3.9 17:58:53 10° N 18:02:47 31° WNW 18:06:35 10° SW
ARGOS 3.3 17:58:02 10° SE 18:03:08 46° ENE 18:08:16 10° N
COSMOS 2455 3.9 17:59:21 10° WSW 18:05:02 41° NW 18:10:44 10° NNE
Okean O Rocket 4.0 18:01:56 10° SSW 18:05:39 26° W 18:09:24 10° NW
YAOGAN 1 2.4 18:02:57 10° SSE 18:07:14 71° ENE 18:11:34 10° N
Cosmos 1937 Rocket 3.7 18:02:23 10° S 18:07:29 50° ESE 18:10:47 21° NE
Cosmos 1818 4.3 18:02:57 10° WSW 18:08:14 51° NW 18:12:52 14° NNE
Okean-O 2.5 18:05:26 10° SSE 18:09:51 78° ENE 18:14:18 10° N
PSLV R/B 3.9 18:06:05 10° NNE 18:10:17 70° ESE 18:14:29 10° S
Cosmos 2195 Rocket 4.4 18:05:03 10° S 18:11:20 76° E 18:17:41 10° NNE
CZ-2C R/B 3.3 18:10:30 27° ENE 18:12:28 34° E 18:17:31 10° SSE
Cosmos 2344 4.3 18:03:46 10° NW 18:12:52 68° NE 18:25:33 10° SE
CZ-2C R/B 3.6 18:09:33 10° S 18:14:53 65° W 18:20:33 10° NNW
SJ 16-02 2.6 18:11:31 10° SW 18:15:39 39° WNW 18:19:48 10° N
SJ-11-01 4.1 18:13:02 10° SSE 18:17:42 76° ENE 18:22:24 10° N
Cosmos 1825 Rocket 4.0 18:14:57 10° SSE 18:18:30 39° ESE 18:18:30 39° ESE
Meteor 1-27 4.4 18:14:32 10° N 18:19:54 44° ENE 18:23:15 21° SE
Cosmos 2112 Rocket 4.2 18:14:43 10° NNW 18:19:57 74° WSW 18:25:08 10° SSE
Cosmos 1812 Rocket 3.6 18:16:43 10° N 18:21:08 80° W 18:25:28 10° S
NOSS 3-1 (C) 4.1 18:14:59 10° NW 18:22:31 88° SW 18:31:14 10° SE
Cosmos 1428 Rocket 4.4 18:16:31 10° S 18:22:47 76° E 18:29:07 10° NNE
CZ-4B R/B 3.4 18:21:47 10° N 18:24:42 27° WNW 18:27:31 10° SW
CSL-04 Debris 4.0 18:19:43 10° SSE 18:25:03 70° ENE 18:30:26 10° N
SAR-Lupe-4 3.6 18:24:42 31° N 18:26:17 79° WNW 18:29:52 10° SSW
Cosmos 44 3.6 18:22:17 10° SW 18:27:05 68° NW 18:29:51 27° NNE
Cosmos 1703 4.0 18:24:02 10° SSW 18:27:49 52° WNW 18:31:38 10° N
Cosmos 1627 Rocket 4.4 18:22:24 10° S 18:28:36 89° ESE 18:34:56 10° N
X-37B 1.0 18:26:39 10° W 18:29:27 60° SW 18:29:27 60° SW
COSMOS 2406 3.1 18:24:58 10° NNW 18:30:47 71° ENE 18:34:24 24° SE
SL-08 RB Rocket 3.6 18:32:25 56° ENE 18:32:25 56° ENE 18:36:48 10° N
Cosmos 1833 Rocket 2.6 18:26:48 10° NNW 18:32:25 64° ENE 18:34:40 36° SE
NOSS 2-1 (C) 3.4 18:34:36 10° SW 18:37:51 53° NW 18:37:54 53° NW
BREEZE-M DEB (TANK) 4.0 18:37:36 10° WNW 18:38:32 23° WNW 18:38:32 23° WNW
Cosmos 1092 Rocket 4.4 18:34:35 10° SSW 18:40:41 62° WNW 18:46:48 10° N
USA 267 4.2 18:41:51 28° SE 18:41:51 28° SE 18:46:49 10° S
USA 229 DEB 3.9 18:34:23 10° NW 18:41:44 89° SW 18:47:27 20° SE
USA 229 3.8 18:34:29 10° NW 18:41:50 90° NE 18:47:25 21° SE
Cosmos 1346 Rocket 4.4 18:38:33 10° S 18:40:13 24° S 18:40:13 24° S
Cosmos 2082 Rocket 2.5 18:37:54 10° NNW 18:43:04 45° NE 18:43:04 45° NE
NOSS 2-1 (D) 3.8 18:40:34 10° WSW 18:43:40 46° NW 18:43:40 46° NW
Cosmos 1689 Rocket 4.1 18:46:58 28° WSW 18:46:58 28° WSW 18:48:46 10° SW
Cosmos 1844 Rocket 4.4 18:46:12 10° WSW 18:51:05 29° NW 18:55:59 10° N
Helios 1A Rocket 3.9 18:48:46 10° S 18:52:46 47° W 18:56:48 10° NNW
NOSS 3-1 (A) 4.1 18:49:45 10° NW 18:57:19 86° SW 19:02:46 26° SSE
ATLAS 2AS CENTAUR R/B 4.5 18:58:47 10° NW 19:04:31 21° N 19:06:55 19° NNE
Cosmos 2278 Rocket 2.1 19:04:31 10° SSW 19:10:12 87° WNW 19:10:25 83° N
CSL-04 Rocket 4.4 19:06:05 10° S 19:11:22 53° W 19:16:46 10° NNW
ATLAS 5 CENTAUR R/B 4.3 19:13:38 10° NNW 19:15:11 12° N 19:15:11 12° N
USA 234 3.6 19:16:51 48° NNE 19:16:57 48° NNE 19:23:10 10° NW
ISS -0.6 19:21:50 10° WNW 19:22:23 13° WNW 19:22:23 13° WNW
CZ-4C R/B 4.3 19:27:38 10° NNW 19:31:42 19° N 19:31:42 19° N
H-2A R/B 4.3 19:28:18 10° SW 19:32:12 22° W 19:36:12 10° NW
CZ-2C R/B 3.9 19:51:59 38° NW 19:52:47 40° WNW 19:57:58 10° SW
Cosmos 2082 Rocket 4.3 20:22:20 10° NW 20:24:57 23° WNW 20:24:57 23° WNW
